Weather History for Canby, MN

Change the Weather History Date:

Saturday, December 1, 2012

  Actual Average (KMML) Record (KMML)
Temperature  
Mean Temperature 43 °F -  
Max Temperature 55 °F 31 °F 62 °F (1998)
Min Temperature 30 °F 15 °F -8 °F (1985)
Degree Days  
Heating Degree Days 22    
Moisture  
Dew Point 33 °F    
Average Humidity 72    
Maximum Humidity 90    
Minimum Humidity 43    
Precipitation  
Precipitation 0.00 in - - ()
Sea Level Pressure  
Sea Level Pressure 29.77 in    
Wind  
Wind Speed 12 mph (WSW)    
Max Wind Speed 26 mph    
Max Gust Speed 34 mph    
Visibility 8 miles    
Events      
Averages and records for this station are not official NWS values.
T = Trace of Precipitation, MM = Missing Value Source: NWS Daily Summary

Daily Weather History Graph

Daily Weather History Graph

Search for Another Location

Airport:

Trip Planner

Search our weather history database for the weather conditions in past years. The results will help you decide how hot, cold, wet, or windy it might be!

Date:

Astronomy

Dec. 01, 2012 Rise Set
Actual Time 7:42 AM CST 4:45 PM CST
Civil Twilight 7:09 AM CST 5:18 PM CST
Nautical Twilight 6:33 AM CST 5:55 PM CST
Astronomical Twilight 5:58 AM CST 6:30 PM CST
Moon 7:38 PM CST 9:54 AM CST
Length of Visible Light 10h 08m
Length of Day
9h 02m
Waning Gibbous, 91% of the Moon is Illuminated
Dec 1
Waning Gibbous
Dec 6
Last Quarter
Dec 13
New
Dec 19
First Quarter
Dec 28
Full

Hourly Weather History & Observations

Time (CST) Temp. Windchill Dew Point Humidity Pressure Visibility Wind Dir Wind Speed Gust Speed Precip Events Conditions
12:15 AM 39.6 °F 31.3 °F 34.7 °F 83% 29.90 in 7.0 mi SSE 15.0 mph - N/A   Clear
12:35 AM 39.2 °F 31.2 °F 34.3 °F 83% 29.88 in 7.0 mi SSE 13.8 mph 19.6 mph N/A   Clear
12:55 AM 37.8 °F 29.4 °F 33.8 °F 86% 29.86 in 7.0 mi SSE 13.8 mph 18.4 mph N/A   Clear
1:15 AM 37.4 °F 29.3 °F 33.6 °F 86% 29.85 in 5.0 mi SSE 12.7 mph - N/A   Clear
1:35 AM 36.9 °F 29.1 °F 33.4 °F 87% 29.84 in 5.0 mi SSE 11.5 mph - N/A   Clear
1:55 AM 36.5 °F 29.7 °F 33.3 °F 88% 29.85 in 5.0 mi SSE 9.2 mph - N/A   Clear
2:15 AM 35.6 °F 28.0 °F 32.9 °F 90% 29.82 in 5.0 mi SE 10.4 mph - N/A   Clear
3:35 AM 37.8 °F 29.8 °F 33.8 °F 86% 29.77 in 7.0 mi SSE 12.7 mph - N/A   Clear
3:55 AM 38.3 °F 30.1 °F 33.6 °F 83% 29.76 in 7.0 mi SSE 13.8 mph - N/A   Clear
4:15 AM 38.8 °F 30.8 °F 33.8 °F 82% 29.74 in 7.0 mi SE 13.8 mph - N/A   Clear
4:35 AM 40.1 °F 32.4 °F 34.0 °F 79% 29.72 in 7.0 mi SE 13.8 mph - N/A   Clear
4:55 AM 40.1 °F 32.7 °F 34.3 °F 80% 29.71 in 7.0 mi SE 12.7 mph 18.4 mph N/A   Clear
5:15 AM 40.5 °F 32.8 °F 35.1 °F 81% 29.69 in 7.0 mi SE 13.8 mph - N/A   Clear
5:55 AM 43.3 °F 36.1 °F 36.9 °F 78% 29.68 in 7.0 mi SW 15.0 mph 26.5 mph N/A   Clear
6:15 AM 43.2 °F 34.7 °F 37.0 °F 79% 29.68 in 7.0 mi SSW 19.6 mph 25.3 mph N/A   Clear
6:35 AM 43.3 °F 36.1 °F 37.4 °F 80% 29.69 in 7.0 mi SW 15.0 mph 25.3 mph N/A   Clear
7:15 AM 41.2 °F 30.7 °F 36.0 °F 82% 29.68 in 7.0 mi SSW 26.5 mph 34.5 mph N/A   Clear
7:35 AM 40.5 °F 31.2 °F 35.6 °F 83% 29.68 in 7.0 mi SSW 19.6 mph 29.9 mph N/A   Clear
7:55 AM 40.6 °F 30.9 °F 35.6 °F 82% 29.69 in 7.0 mi SSW 21.9 mph 31.1 mph N/A   Clear
8:15 AM 41.2 °F 34.5 °F 35.8 °F 81% 29.69 in 5.0 mi SW 11.5 mph 27.6 mph N/A   Haze
8:35 AM 41.4 °F 33.6 °F 35.8 °F 81% 29.70 in 7.0 mi SW 15.0 mph 25.3 mph N/A   Scattered Clouds
9:15 AM 41.4 °F 36.2 °F 35.8 °F 81% 29.72 in 7.0 mi WSW 8.1 mph - N/A   Overcast
9:35 AM 41.9 °F 35.0 °F 35.8 °F 79% 29.72 in 7.0 mi SW 12.7 mph 18.4 mph N/A   Overcast
9:55 AM 42.3 °F 35.9 °F 35.8 °F 78% 29.72 in 7.0 mi SW 11.5 mph 21.9 mph N/A   Mostly Cloudy
10:15 AM 42.8 °F 34.0 °F 35.6 °F 76% 29.72 in 7.0 mi SW 20.7 mph 24.2 mph N/A   Mostly Cloudy
10:35 AM 43.3 °F 36.8 °F 35.6 °F 74% 29.72 in 7.0 mi WSW 12.7 mph 17.3 mph N/A   Overcast
10:55 AM 44.6 °F 39.7 °F 35.6 °F 71% 29.72 in 7.0 mi WSW 9.2 mph - N/A   Mostly Cloudy
11:15 AM 46.8 °F - 35.6 °F 65% 29.72 in 10.0 mi WSW 11.5 mph 16.1 mph N/A   Clear
11:35 AM 48.6 °F - 35.1 °F 60% 29.71 in 10.0 mi WSW 10.4 mph - N/A   Clear
11:55 AM 49.6 °F - 34.7 °F 56% 29.70 in 10.0 mi West 8.1 mph - N/A   Clear
12:15 PM 50.7 °F - 34.7 °F 54% 29.70 in 10.0 mi West 8.1 mph - N/A   Clear
12:35 PM 51.8 °F - 34.9 °F 53% 29.71 in 10.0 mi West 6.9 mph - N/A   Clear
12:55 PM 52.7 °F - 34.7 °F 50% 29.71 in 10.0 mi West 4.6 mph - N/A   Clear
1:15 PM 53.6 °F - 34.7 °F 49% 29.71 in 10.0 mi WNW 5.8 mph - N/A   Clear
1:35 PM 54.1 °F - 34.5 °F 48% 29.71 in 10.0 mi West 11.5 mph - N/A   Clear
1:55 PM 54.7 °F - 34.5 °F 47% 29.71 in 10.0 mi WNW 8.1 mph - N/A   Clear
2:15 PM 55.4 °F - 34.0 °F 44% 29.70 in 10.0 mi WNW 9.2 mph - N/A   Clear
2:35 PM 55.4 °F - 33.8 °F 44% 29.71 in 10.0 mi WNW 6.9 mph - N/A   Clear
3:15 PM 54.9 °F - 32.9 °F 43% 29.72 in 10.0 mi NW 9.2 mph - N/A   Clear
3:35 PM 54.3 °F - 32.9 °F 44% 29.73 in 10.0 mi NW 8.1 mph - N/A   Clear
4:15 PM 50.5 °F - 32.4 °F 50% 29.75 in 10.0 mi WNW 5.8 mph - N/A   Clear
4:35 PM 48.2 °F - 32.4 °F 54% 29.75 in 10.0 mi NW 3.5 mph - N/A   Clear
5:15 PM 45.3 °F 43.0 °F 32.0 °F 60% 29.77 in 10.0 mi West 4.6 mph - N/A   Clear
5:54 PM 39.2 °F 35.9 °F 30.4 °F 71% 29.80 in 10.0 mi West 4.6 mph - N/A   Clear
6:15 PM 39.6 °F 34.0 °F 30.4 °F 70% 29.80 in 10.0 mi WNW 8.1 mph - N/A   Clear
6:35 PM 40.5 °F 35.8 °F 31.1 °F 69% 29.81 in 10.0 mi WNW 6.9 mph - N/A   Clear
6:54 PM 40.5 °F 35.8 °F 31.1 °F 69% 29.82 in 10.0 mi NW 6.9 mph - N/A   Scattered Clouds
7:15 PM 40.5 °F 37.3 °F 31.1 °F 69% 29.81 in 10.0 mi NNW 4.6 mph - N/A   Scattered Clouds
7:35 PM 41.0 °F 38.0 °F 31.1 °F 68% 29.81 in 10.0 mi WNW 4.6 mph - N/A   Scattered Clouds
7:54 PM 40.5 °F 35.8 °F 31.1 °F 69% 29.82 in 10.0 mi NNW 6.9 mph - N/A   Scattered Clouds
8:15 PM 41.7 °F 36.1 °F 31.5 °F 67% 29.83 in 10.0 mi NW 9.2 mph - N/A   Scattered Clouds
8:35 PM 40.1 °F 38.0 °F 30.9 °F 70% 29.83 in 10.0 mi NW 3.5 mph - N/A   Clear
8:54 PM 36.3 °F 32.5 °F 29.5 °F 76% 29.84 in 10.0 mi NW 4.6 mph - N/A   Clear
9:15 PM 35.6 °F 31.7 °F 30.0 °F 80% 29.85 in 10.0 mi WNW 4.6 mph - N/A   Clear
9:35 PM 32.4 °F 26.9 °F 28.4 °F 85% 29.86 in 10.0 mi West 5.8 mph - N/A   Clear
9:55 PM 33.4 °F 27.3 °F 28.4 °F 82% 29.86 in 10.0 mi WNW 6.9 mph - N/A   Clear
10:15 PM 34.0 °F 29.8 °F 29.5 °F 84% 29.87 in 10.0 mi West 4.6 mph - N/A   Clear
10:35 PM 33.4 °F 29.1 °F 28.9 °F 84% 29.88 in 10.0 mi West 4.6 mph - N/A   Clear
10:55 PM 33.3 °F 27.9 °F 28.8 °F 84% 29.88 in 10.0 mi West 5.8 mph - N/A   Clear
11:15 PM 32.4 °F 26.9 °F 28.4 °F 85% 29.88 in 7.0 mi West 5.8 mph - N/A   Clear
11:34 PM 31.1 °F 26.4 °F 27.0 °F 85% 29.89 in 7.0 mi West 4.6 mph - N/A   Clear
11:55 PM 30.2 °F 25.4 °F 27.0 °F 88% 29.90 in 7.0 mi WSW 4.6 mph - N/A   Clear